Simultaneous Nadir Overpasses (SNOs) Predictions

Prediction of SNOs between AQUA and METOP-C Satellite Orbit:

Table of predicted SNOs for the next 14.0 days since TLE Epoch: 7/24/2020
Index Date (AQUA) Time (AQUA) Lat,Lon (AQUA) SZA (AQUA ) Date (METOP-C) Time (METOP-C) Lat,Lon (METOP-C) SZA (METOP-C ) Distance(km) Time Diff (sec)
1 07/27/2020 10:40:27 73.75, 14.32 54.76 07/27/2020 10:39:47 73.76, 14.41 54.77 2.99 40
2 07/27/2020 11:29:53 -73.79,-178.11 125.20 07/27/2020 11:30:27 -73.82,-178.12 125.17 3.41 34
3 07/30/2020 06:14:41 73.74, 80.79 55.41 07/30/2020 06:14:08 73.72, 80.73 55.40 2.49 33
4 07/30/2020 07:04:08 -73.82,-111.75 124.49 07/30/2020 07:04:47 -73.83,-111.68 124.49 2.40 39
5 08/02/2020 01:48:56 73.72, 147.26 56.10 08/02/2020 01:48:29 73.73, 147.17 56.12 2.89 27
6 08/02/2020 02:38:23 -73.81, -45.28 123.80 08/02/2020 02:39:09 -73.79, -45.36 123.82 3.08 46
7 08/04/2020 20:33:30 -73.02, 47.52 123.92 08/04/2020 20:32:25 -72.97, 44.55 123.83 96.90 65
8 08/04/2020 21:23:12 73.77,-146.40 56.89 08/04/2020 21:22:50 73.74,-146.40 56.87 3.24 22
9 08/04/2020 22:12:38 -73.80, 21.17 123.07 08/04/2020 22:13:30 -73.80, 21.07 123.07 3.26 52
10 08/07/2020 16:07:49 -73.28, 113.44 122.87 08/07/2020 16:06:40 -73.23, 111.52 122.82 61.80 69
11 08/07/2020 16:57:26 73.76, -79.96 57.67 08/07/2020 16:57:10 73.74, -79.98 57.65 2.31 16
12 08/07/2020 17:46:53 -73.84, 87.51 122.24 08/07/2020 17:47:49 -73.86, 87.62 122.24 3.55 56
